Погода в Ситове

Россия / Тульская область     53°20′26″N   37°49′20″E
темп.,
°C
ветер,
м/с
пор.,
м/с
влажн.,
%
обл.,
%
осадки,
мм/ч
давл.,
гПа
погр.,
м
27 октября, ср
ср2700:00+3юз61661100 0.0 1025438
03:00+2юз61565100 0.0 1024388
06:00+2юз61473100 0.0 1022341
09:00+3юз7167151 0.0 1021488
12:00+7юз814615 0.0 1020751
15:00+8зюз7126196 0.0 1018944
18:00+7з71266100 0.0 1019794
21:00+6з5107789 0.0 1019454
28 октября, чт
чт2800:00+5з41085100 0.0 1020440
03:00+3зюз51195100 0.0 1019267
06:00+4юз61387100 0.0 1017387
09:00+5юз71690100 0.5 1015569
12:00+6зюз71394100 0.7 1015518
15:00+7з61396100 0.9 1015520
18:00+8з51195100 0.0 1016444
21:00+7ссз5118836 0.3 1019352
29 октября, пт
пт2900:00+7ссз51189100 0.0 1021558
03:00+5ссв48907 0.0 1024287
06:00+4ссв359599 0.0 1027114
09:00+4всв24856 0.0 1029168
12:00+7юв22675 0.0 1030625
15:00+8ююз22635 0.0 1030644
18:00+6юз22765 0.0 103018
21:00+5юз338132 0.0 103134
30 октября, сб
сб3000:00+4юз35865 0.0 103276
03:00+3юз368956 0.0 103295
06:00+3юз35905 0.0 103285
09:00+4юз37865 0.0 1033173
12:00+9юз46685 0.0 1033389
15:00+10юз46645 0.0 1032502
18:00+7юз357748 0.0 103285
21:00+5юз378366 0.0 1032120
31 октября, вс
вс3100:00+4юз36905 0.0 1033111
03:00+4юз36915 0.0 1033104
06:00+3юз35915 0.0 103285
09:00+4юз36855 0.0 1032160
12:00+9юз46615 0.0 1031365
15:00+10ююз46570 0.0 1030503
18:00+7ю34710 0.0 103044
21:00+5ю35740 0.0 103068